Regional Weather Roundup
Issued by NWS Portland, ME

Home | Current Version | Previous Version | Text Only | Print | Product List | Glossary On
Versions: 1 2 3 4 5 6 7 8 9 10 11 12 13 14 15 16 17 18 19 20 21 22 23 24 25 26 27 28 29 30 31 32 33 34 35 36 37 38 39 40 41 42 43 44 45 46 47 48 49 50
000
ASUS41 KGYX 241010
RWRGYX
WEATHER ROUNDUP FOR MAINE AND NEW HAMPSHIRE
NATIONAL WEATHER SERVICE GRAY ME
600 AM EDT SUN SEP 24 2017

MEZ002-005-006-010-012-015-018-020-021-024-026-027-029-241100-
MAINE

CITY           SKY/WX    TMP DP  RH WIND       PRES   REMARKS
PORTLAND       CLEAR     63  60  90 W3        30.04S
SANFORD        CLEAR     57  56  96 CALM      30.06R
BAR HARBOR     CLEAR     56  55  97 CALM      30.03S
WISCASSET      CLEAR     57  55  93 CALM      30.05R
ROCKLAND       CLEAR     58  57  97 CALM      30.03R
FRYEBURG       CLEAR     55  55 100 CALM      30.07R
LEWISTONAUBURN CLEAR     61  60  97 CALM      30.06R
AUGUSTA        CLEAR     61  59  93 CALM      30.05R
WATERVILLE     CLEAR     58  58 100 CALM      30.03R
BANGOR         CLEAR     58  56  93 NW3       30.04R
GREENVILLE       N/A     63  61  93 CALM      30.06R
MILLINOCKET    CLEAR     58  58 100 E5        30.05R FOG
HOULTON        CLEAR     54  52  93 S5        30.02S
PRESQUE ISLE   PTCLDY    57  53  86 CALM      30.03R
FRENCHVILLE    CLOUDY    59  56  89 S8        29.99R
CARIBOU        PTCLDY    59  52  77 S5        30.00S
$$

NHZ002-005-008-009-011-012-014-241100-
NEW HAMPSHIRE

CITY           SKY/WX    TMP DP  RH WIND       PRES   REMARKS
ROCHESTER      CLEAR     62  58  86 NW5       30.05R
NASHUA         CLEAR     59  58  96 CALM      30.07R
MANCHESTER     CLEAR     65  61  87 CALM      30.05R
CONCORD        CLEAR     57  55  93 CALM      30.07R
LACONIA        CLEAR     60  59  96 W3        30.08R
PLYMOUTH       FAIR      54  53  96 CALM      30.08S FOG
BERLIN         FOG       53  51  93 CALM      30.12S VSB 1/4
WHITEFIELD     CLEAR     52  48  86 CALM      30.12R
JAFFREY        CLEAR     57  57 100 S3        30.11R
KEENE          FOG       55  54  94 CALM      30.11R VSB 1
LEBANON        CLOUDY    58  56  93 CALM      30.10R FOG
MT WASHINGTON  CLEAR     54  50  87 NW26        N/A
$$

VTZ005-007-008-241100-
VERMONT

CITY           SKY/WX    TMP DP  RH WIND       PRES   REMARKS
ST JOHNSBURY     N/A     58  58 100 MISG      30.10R
MONTPELIER     FOG       56  56 100 CALM      30.15S VSB 1/2
BURLINGTON     PTCLDY    62  61  96 CALM      30.08S
$$

MAZ007-012-024-CTZ003-RIZ002-NYZ038-NYZ072-241100-
SOUTHERN NEW ENGLAND AND NY

CITY           SKY/WX    TMP DP  RH WIND       PRES   REMARKS
BOSTON         CLEAR     61  61 100 CALM      30.05R
WORCESTER      CLEAR     73  59  61 N9        30.09R
NANTUCKET      FOG       61  61 100 N12       30.03R VSB 1/4
PROVIDENCE     CLEAR     61  61 100 CALM      30.05R
HARTFORD       CLEAR     60  58  92 CALM      30.07R
ALBANY         CLEAR     60  57  89 CALM      30.10R
NEW YORK CITY  CLEAR     72  59  63 CALM      30.04S
$$

ANZ081-ANZ082-ANZ150-NHZ014-MEZ023>029-241100-
COASTAL MARINE OBSERVATIONS

STATION/POSITION TIME  TEMP    WIND        PRES    WAVE
                       AIR SEA DIR/SP/G            HT/PER
                 (UTC) (F)     (DEG/KT/KT) (MB)    (FT/S)
MOUNT DESERT ROC 1000   58     210/  6/  7 1017.0R
MATINICUS ROCK   0900   58     290/ 11/ 11 1016.3R
ISLE OF SHOALS   0900   66     340/  9/  9 1016.7R
JEFFREYS LEDGE   0936      62                N/A     4/13
GEORGES BANK BUO 0850   75 75              1012.9    6/12
$$

.............KEY..............
   WCI - WIND CHILL
   TC  - TEMPERATURE IN CELSIUS
   VSB - VISIBILITY IN MILES
   HX  - HEAT INDEX
   FAIR- INDICATES FEW OR NO CLOUDS BELOW 12,000 FT, WITH NO
         SIGNIFICANT WEATHER AND/OR OBSTRUCTIONS TO VISIBILITY.





USA.gov is the U.S. government's official web portal to all federal, state and local government web resources and services.